Date String (YYYY-MM-DD hh:mm:ss) UTC,Instrument flags,absolute air pressure of the measurement (hPa),sample flow rate (lpm),inlet stack bypass flow (lpm),air temperature of the measurement (°C),ambient temperature measured by the external sensor (°C),aerosol sample conditioner tube jacket temperature (°C),OPC LED temperature (°C),internal box temperature (°C),relative humidity of the measurement (%),span deviation,mass concentration of particles derived from Lorenz-Mie calculation of OPC scattering (μg/m³),mass concentration of particles derived from Lorenz-Mie calculation of OPC scattering (μg/m³),mass concentration of particles derived from Lorenz-Mie calculation of OPC scattering (μg/m³)
DateTimeUTC,F1_M11,P_M11,Q1_M11,Q2_M11,T1_M11,T2_M11,T3_M11,T4_M11,T5_M11,U1_M11,ZSPAN_M11,X0_M11,X2_M11,X1_M11
2023-06-14 19:00:00,SystemResetWarning,0826.5,5.00,000.00,029.5,024.9,000.0,037.9,031.1,26.5,0000.0,0011.40,0004.22,0003.44
2023-06-14 19:01:00,SystemResetWarning,0826.4,5.02,000.00,029.5,024.4,000.0,037.8,031.0,25.9,0000.0,0011.50,0004.22,0003.44
2023-06-14 19:02:00,SystemResetWarning,0826.4,5.00,000.00,029.4,024.6,000.0,037.8,030.7,24.7,0000.0,0012.28,0004.26,0003.44
2023-06-14 19:03:00,SystemResetWarning,0826.4,4.99,000.00,029.3,025.2,000.0,037.8,030.6,24.4,0000.0,0011.69,0004.25,0003.43
2023-06-14 19:04:00,SystemResetWarning,0826.3,5.01,000.00,029.3,025.7,000.0,037.8,030.7,24.4,0000.0,0011.57,0004.18,0003.41
2023-06-14 19:05:00,SystemResetWarning,0826.4,5.00,000.00,029.3,026.2,000.0,037.8,030.8,24.1,0000.0,0012.09,0004.13,0003.40
2023-06-14 19:06:00,SystemResetWarning,0826.4,5.00,000.00,029.3,026.6,000.0,037.8,030.8,26.4,0000.0,0012.06,0004.10,0003.40
2023-06-14 19:07:00,SystemResetWarning,0826.4,5.00,000.00,029.3,027.0,000.0,037.8,030.9,26.5,0000.0,0011.99,0004.05,0003.38
2023-06-14 19:08:00,SystemResetWarning,0826.4,5.01,000.00,029.4,027.3,000.0,037.8,031.0,26.3,0000.0,0011.90,0003.99,0003.37
2023-06-14 19:09:00,SystemResetWarning,0826.4,4.98,000.00,029.4,027.6,000.0,037.9,031.0,25.6,0000.0,0011.47,0003.99,0003.36
2023-06-14 19:10:00,SystemResetWarning,0826.4,5.00,000.00,029.4,027.8,000.0,037.9,031.0,25.6,0000.0,0011.38,0004.03,0003.37
2023-06-14 19:11:00,SystemResetWarning,0826.4,5.00,000.00,029.4,028.0,000.0,037.9,031.1,25.7,0000.0,0010.37,0004.02,0003.36
2023-06-14 19:12:00,SystemResetWarning,0826.4,5.00,000.00,029.5,027.5,000.0,037.9,031.1,24.7,0000.0,0010.78,0004.02,0003.35
2023-06-14 19:13:00,SystemResetWarning,0826.4,5.00,000.00,029.5,025.8,000.0,037.8,031.0,24.3,0000.0,0010.39,0004.02,0003.36
2023-06-14 19:14:00,SystemResetWarning,0826.3,5.01,000.00,029.4,025.3,000.0,037.8,030.9,24.0,0000.0,0010.52,0004.05,0003.37
2023-06-14 19:15:00,SystemResetWarning,0826.3,5.00,000.00,029.4,025.6,000.0,037.8,030.8,23.2,0000.0,0010.11,0004.09,0003.38
2023-06-14 19:16:00,SystemResetWarning,0826.2,5.00,000.00,029.3,026.0,000.0,037.8,030.8,24.1,0000.0,0009.63,0004.12,0003.38
2023-06-14 19:17:00,SystemResetWarning,0826.3,4.99,000.00,029.3,026.5,000.0,037.8,030.8,25.2,0000.0,0010.18,0004.15,0003.38
2023-06-14 19:18:00,SystemResetWarning,0826.3,4.99,000.00,029.4,026.9,000.0,037.8,030.9,25.1,0000.0,0010.14,0004.16,0003.37
2023-06-14 19:19:00,SystemResetWarning,0826.3,5.00,000.00,029.4,027.3,000.0,037.8,031.0,25.0,0000.0,0010.55,0004.17,0003.38
2023-06-14 19:20:00,SystemResetWarning,0826.3,5.01,000.00,029.4,027.6,000.0,037.8,031.0,25.7,0000.0,0010.98,0004.17,0003.38
2023-06-14 19:21:00,SystemResetWarning,0826.3,4.99,000.00,029.5,027.8,000.0,037.9,031.1,24.7,0000.0,0011.45,0004.13,0003.38
2023-06-14 19:22:00,SystemResetWarning,0826.2,4.99,000.00,029.5,027.6,000.0,037.9,031.2,24.5,0000.0,0011.31,0004.14,0003.38
2023-06-14 19:23:00,SystemResetWarning,0826.2,5.00,000.00,029.5,025.6,000.0,037.8,031.0,25.0,0000.0,0010.66,0004.14,0003.39
2023-06-14 19:24:00,SystemResetWarning,0826.2,5.01,000.00,029.4,024.3,000.0,037.8,030.9,25.9,0000.0,0010.71,0004.09,0003.39
2023-06-14 19:25:00,SystemResetWarning,0826.2,5.01,000.00,029.4,024.3,000.0,037.7,030.7,26.3,0000.0,0011.65,0004.06,0003.39
2023-06-14 19:26:00,SystemResetWarning,0826.2,4.99,000.00,029.3,024.8,000.0,037.7,030.6,26.4,0000.0,0011.87,0004.05,0003.38
2023-06-14 19:27:00,SystemResetWarning,0826.2,5.00,000.00,029.2,025.4,000.0,037.7,030.6,25.4,0000.0,0012.50,0004.02,0003.36
2023-06-14 19:28:00,SystemResetWarning,0826.2,5.01,000.00,029.2,026.0,000.0,037.7,030.7,23.8,0000.0,0011.91,0004.01,0003.37
2023-06-14 19:29:00,SystemResetWarning,0826.1,4.99,000.00,029.2,026.4,000.0,037.7,030.8,22.8,0000.0,0012.34,0004.04,0003.38
2023-06-14 19:30:00,SystemResetWarning,0826.1,5.00,000.00,029.3,026.9,000.0,037.7,030.9,23.1,0000.0,0012.19,0004.06,0003.38
2023-06-14 19:31:00,SystemResetWarning,0826.0,5.00,000.00,029.3,027.2,000.0,037.7,030.9,24.8,0000.0,0011.76,0004.03,0003.37
2023-06-14 19:32:00,SystemResetWarning,0826.0,5.00,000.00,029.3,027.5,000.0,037.8,031.0,24.7,0000.0,0011.59,0004.01,0003.36
2023-06-14 19:33:00,SystemResetWarning,0826.0,5.01,000.00,029.4,027.7,000.0,037.8,031.1,24.6,0000.0,0013.26,0004.03,0003.35
2023-06-14 19:34:00,SystemResetWarning,0826.0,4.98,000.00,029.4,027.9,000.0,037.8,031.1,24.9,0000.0,0013.22,0004.02,0003.34
2023-06-14 19:35:00,SystemResetWarning,0826.0,4.99,000.00,029.5,028.0,000.0,037.8,031.2,23.6,0000.0,0012.86,0004.05,0003.33
2023-06-14 19:36:00,SystemResetWarning,0826.0,4.99,000.00,029.5,026.5,000.0,037.8,031.1,23.7,0000.0,0011.64,0004.03,0003.33
2023-06-14 19:37:00,SystemResetWarning,0826.0,5.01,000.00,029.4,024.6,000.0,037.7,030.9,25.3,0000.0,0011.50,0004.02,0003.33
2023-06-14 19:38:00,SystemResetWarning,0825.9,5.00,000.00,029.4,024.3,000.0,037.7,030.8,25.5,0000.0,0010.56,0004.03,0003.34
2023-06-14 19:39:00,SystemResetWarning,0825.9,5.01,000.00,029.3,024.7,000.0,037.7,030.6,26.1,0000.0,0010.51,0004.04,0003.34
2023-06-14 19:40:00,SystemResetWarning,0825.9,4.99,000.00,029.2,025.2,000.0,037.7,030.6,27.4,0000.0,0010.14,0004.01,0003.33
2023-06-14 19:41:00,SystemResetWarning,0825.9,4.99,000.00,029.2,025.8,000.0,037.7,030.6,25.7,0000.0,0010.05,0004.01,0003.33
2023-06-14 19:42:00,SystemResetWarning,0825.9,5.00,000.00,029.2,026.3,000.0,037.7,030.7,25.6,0000.0,0010.14,0004.04,0003.34
2023-06-14 19:43:00,SystemResetWarning,0825.9,5.01,000.00,029.2,026.7,000.0,037.7,030.8,26.7,0000.0,0010.09,0004.05,0003.35
2023-06-14 19:44:00,SystemResetWarning,0826.0,4.99,000.00,029.3,027.1,000.0,037.7,030.9,27.3,0000.0,0008.52,0004.03,0003.36
2023-06-14 19:45:00,SystemResetWarning,0826.0,4.98,000.00,029.3,027.5,000.0,037.7,031.0,25.7,0000.0,0008.51,0004.01,0003.36
2023-06-14 19:46:00,SystemResetWarning,0825.9,5.00,000.00,029.3,027.7,000.0,037.7,031.1,24.6,0000.0,0008.40,0003.98,0003.36
2023-06-14 19:47:00,SystemResetWarning,0825.9,5.01,000.00,029.4,028.0,000.0,037.8,031.1,24.7,0000.0,0008.45,0004.01,0003.36
2023-06-14 19:48:00,SystemResetWarning,0825.9,5.01,000.00,029.4,027.9,000.0,037.8,031.2,25.2,0000.0,0008.26,0004.02,0003.36
2023-06-14 19:49:00,SystemResetWarning,0825.9,4.98,000.00,029.4,025.9,000.0,037.7,031.0,25.5,0000.0,0008.29,0004.01,0003.35
2023-06-14 19:50:00,SystemResetWarning,0825.9,5.02,000.00,029.4,024.3,000.0,037.7,030.9,24.9,0000.0,0008.59,0003.99,0003.35
2023-06-14 19:51:00,SystemResetWarning,0825.9,5.00,000.00,029.3,024.2,000.0,037.7,030.7,24.7,0000.0,0008.82,0003.99,0003.35
2023-06-14 19:52:00,SystemResetWarning,0825.9,5.00,000.00,029.2,024.7,000.0,037.7,030.5,24.3,0000.0,0008.92,0003.96,0003.35
2023-06-14 19:53:00,SystemResetWarning,0825.9,4.99,000.00,029.2,025.2,000.0,037.7,030.6,25.1,0000.0,0008.89,0003.94,0003.35
2023-06-14 19:54:00,SystemResetWarning,0825.8,5.00,000.00,029.2,025.8,000.0,037.7,030.6,25.1,0000.0,0009.02,0003.92,0003.35
2023-06-14 19:55:00,SystemResetWarning,0825.9,5.01,000.00,029.2,026.3,000.0,037.7,030.7,24.1,0000.0,0009.36,0003.92,0003.34
2023-06-14 19:56:00,SystemResetWarning,0825.9,4.99,000.00,029.2,026.7,000.0,037.7,030.8,24.0,0000.0,0009.68,0003.94,0003.35
2023-06-14 19:57:00,SystemResetWarning,0825.9,4.99,000.00,029.2,027.1,000.0,037.7,030.8,25.1,0000.0,0009.72,0003.95,0003.35
2023-06-14 19:58:00,SystemResetWarning,0825.9,4.99,000.00,029.2,027.3,000.0,037.7,030.9,26.2,0000.0,0009.77,0003.96,0003.35
2023-06-14 19:59:00,SystemResetWarning,0825.9,5.00,000.00,029.3,027.6,000.0,037.7,031.0,25.6,0000.0,0009.82,0003.94,0003.36
